Torna al catalogo

STARLINK-4008

AttivoComunicazioniVLEO
NORAD 52622·PAYLOAD·🇺🇸 United States

Lanciato May 14, 2022 da Cape Canaveral Space Force Station

Loading…

Prossimi Passaggi (prossime 24 ore)

TLE

AggiornatoSource: CelesTrak SupGP

Epoca: Sep 15, 2026, 02:37 UTC

1 52622C 22052AA  26258.10951389  .00025087  00000+0  71780-3 0  2582
2 52622  53.1563 141.6250 0001303  85.0261 224.8495 15.35384566    11

Traccia STARLINK-4008 in tempo reale con AllMySat

Download on the App Store